• en Suisse
  • Liste des pays
  • À 7 jours
  • Température de l'eau
  • Carte satellitaire
  • Carte météo
  • Widgets météo
  • user-avatar
    Se connecter

    Météo par heure à Invercargill

    Ce jour, 16 Juillet, Lundi

    Heure Température Précipitation Vent Pression Humidité
    00:00 +8°C° 0 mm 4 m/s 754 mmHg 79%
    01:00 +8°C° 0 mm 4 m/s 753 mmHg 80%
    02:00 +9°C° 0 mm 3 m/s 753 mmHg 81%
    03:00 +9°C° 0 mm 3 m/s 752 mmHg 82%
    04:00 +9°C° 0 mm 3 m/s 752 mmHg 83%
    05:00 +8°C° 0 mm 3 m/s 752 mmHg 83%
    06:00 +8°C° 0 mm 3 m/s 751 mmHg 84%
    07:00 +8°C° 0 mm 3 m/s 751 mmHg 84%
    08:00 +8°C° 0 mm 3 m/s 750 mmHg 84%
    09:00 +9°C° 0 mm 2 m/s 750 mmHg 81%
    10:00 +10°C° 0 mm 2 m/s 749 mmHg 77%
    11:00 +12°C° 0 mm 2 m/s 749 mmHg 73%
    12:00 +13°C° 0 mm 2 m/s 749 mmHg 71%
    13:00 +14°C° 0 mm 2 m/s 748 mmHg 69%
    14:00 +14°C° 0 mm 2 m/s 748 mmHg 68%
    15:00 +13°C° 0 mm 2 m/s 748 mmHg 74%
    16:00 +12°C° 0 mm 2 m/s 748 mmHg 80%
    17:00 +10°C° 0 mm 1 m/s 748 mmHg 86%
    18:00 +9°C° 0 mm 2 m/s 748 mmHg 87%
    19:00 +9°C° 0 mm 2 m/s 748 mmHg 87%
    20:00 +9°C° 0 mm 2 m/s 748 mmHg 88%
    21:00 +9°C° 0 mm 3 m/s 748 mmHg 89%
    22:00 +9°C° 0 mm 3 m/s 749 mmHg 90%
    23:00 +9°C° 0 mm 3 m/s 749 mmHg 92%

    Demain, 17 Juillet, Mardi

    Heure Température Précipitation Vent Pression Humidité
    00:00 +7°C° 0,1 mm 4 m/s 749 mmHg 91%
    01:00 +7°C° 0,1 mm 4 m/s 750 mmHg 91%
    02:00 +7°C° 0,1 mm 4 m/s 750 mmHg 91%
    03:00 +7°C° 0,1 mm 5 m/s 751 mmHg 90%
    04:00 +7°C° 0,1 mm 5 m/s 751 mmHg 88%
    05:00 +7°C° 0,1 mm 5 m/s 751 mmHg 87%
    06:00 +7°C° 0 mm 5 m/s 752 mmHg 87%
    07:00 +6°C° 0 mm 5 m/s 752 mmHg 86%
    08:00 +6°C° 0 mm 5 m/s 753 mmHg 86%
    09:00 +7°C° 0 mm 5 m/s 753 mmHg 80%
    10:00 +10°C° 0 mm 4 m/s 753 mmHg 74%
    11:00 +11°C° 0 mm 4 m/s 754 mmHg 68%
    12:00 +11°C° 0 mm 4 m/s 754 mmHg 66%
    13:00 +11°C° 0 mm 4 m/s 754 mmHg 65%
    14:00 +12°C° 0 mm 4 m/s 753 mmHg 64%
    15:00 +11°C° 0 mm 4 m/s 754 mmHg 70%
    16:00 +8°C° 0 mm 4 m/s 754 mmHg 75%
    17:00 +8°C° 0 mm 3 m/s 755 mmHg 81%
    18:00 +8°C° 0 mm 3 m/s 755 mmHg 82%
    19:00 +7°C° 0 mm 3 m/s 756 mmHg 83%
    20:00 +7°C° 0 mm 3 m/s 756 mmHg 84%
    21:00 +7°C° 0 mm 3 m/s 756 mmHg 85%
    22:00 +7°C° 0 mm 3 m/s 756 mmHg 85%
    23:00 +5°C° 0 mm 3 m/s 756 mmHg 85%

    Après-demain, 18 Juillet, Mercredi

    Heure Température Précipitation Vent Pression Humidité
    00:00 +5°C° 0 mm 3 m/s 756 mmHg 86%
    01:00 +6°C° 0 mm 2 m/s 756 mmHg 88%
    02:00 +6°C° 0 mm 2 m/s 756 mmHg 89%
    03:00 +6°C° 0 mm 2 m/s 756 mmHg 89%
    04:00 +5°C° 0 mm 2 m/s 756 mmHg 89%
    05:00 +5°C° 0 mm 2 m/s 756 mmHg 90%
    06:00 +5°C° 0 mm 2 m/s 756 mmHg 89%
    07:00 +6°C° 0 mm 2 m/s 756 mmHg 88%
    08:00 +6°C° 0 mm 2 m/s 756 mmHg 86%
    09:00 +7°C° 0 mm 2 m/s 756 mmHg 80%
    10:00 +9°C° 0 mm 2 m/s 756 mmHg 73%
    11:00 +12°C° 0 mm 2 m/s 756 mmHg 67%
    12:00 +13°C° 0 mm 2 m/s 755 mmHg 66%
    13:00 +13°C° 0 mm 2 m/s 755 mmHg 66%
    14:00 +14°C° 0 mm 2 m/s 754 mmHg 65%
    15:00 +13°C° 0 mm 2 m/s 754 mmHg 71%
    16:00 +10°C° 0 mm 2 m/s 754 mmHg 77%
    17:00 +9°C° 0 mm 2 m/s 754 mmHg 82%
    18:00 +8°C° 0 mm 2 m/s 754 mmHg 83%
    19:00 +8°C° 0 mm 2 m/s 754 mmHg 84%
    20:00 +7°C° 0 mm 2 m/s 754 mmHg 84%
    21:00 +7°C° 0 mm 2 m/s 754 mmHg 86%
    22:00 +6°C° 0 mm 2 m/s 754 mmHg 87%
    23:00 +6°C° 0 mm 2 m/s 754 mmHg 89%

    19 Juillet, Jeudi

    Heure Température Précipitation Vent Pression Humidité
    00:00 +6°C° 0 mm 2 m/s 754 mmHg 88%
    01:00 +5°C° 0 mm 2 m/s 754 mmHg 88%
    02:00 +5°C° 0 mm 2 m/s 754 mmHg 88%
    03:00 +5°C° 0,1 mm 2 m/s 754 mmHg 87%
    04:00 +5°C° 0,1 mm 2 m/s 754 mmHg 87%
    05:00 +7°C° 0,1 mm 1 m/s 753 mmHg 87%
    06:00 +7°C° 0 mm 1 m/s 754 mmHg 86%
    07:00 +7°C° 0 mm 1 m/s 754 mmHg 85%
    08:00 +7°C° 0 mm 1 m/s 754 mmHg 84%
    09:00 +9°C° 0 mm 1 m/s 755 mmHg 79%
    10:00 +10°C° 0 mm 1 m/s 755 mmHg 74%
    11:00 +12°C° 0 mm 1 m/s 755 mmHg 69%
    12:00 +12°C° 0 mm 1 m/s 755 mmHg 68%
    13:00 +13°C° 0 mm 1 m/s 755 mmHg 67%
    14:00 +14°C° 0 mm 1 m/s 755 mmHg 66%
    15:00 +12°C° 0 mm 1 m/s 755 mmHg 74%
    16:00 +10°C° 0 mm 1 m/s 756 mmHg 82%
    17:00 +8°C° 0 mm 2 m/s 756 mmHg 90%
    18:00 +7°C° 0 mm 2 m/s 757 mmHg 91%
    19:00 +7°C° 0 mm 2 m/s 757 mmHg 92%
    20:00 +7°C° 0 mm 2 m/s 757 mmHg 93%
    21:00 +7°C° 0 mm 2 m/s 758 mmHg 94%
    22:00 +6°C° 0 mm 2 m/s 758 mmHg 95%
    23:00 +6°C° 0 mm 2 m/s 758 mmHg 96%

    20 Juillet, Vendredi

    Heure Température Précipitation Vent Pression Humidité
    00:00 +6°C° 0 mm 2 m/s 758 mmHg 95%
    01:00 +5°C° 0 mm 2 m/s 758 mmHg 95%
    02:00 +5°C° 0 mm 2 m/s 758 mmHg 95%
    03:00 +5°C° 0 mm 2 m/s 758 mmHg 93%
    04:00 +4°C° 0 mm 3 m/s 758 mmHg 92%
    05:00 +4°C° 0 mm 3 m/s 758 mmHg 90%
    06:00 +5°C° 0 mm 3 m/s 758 mmHg 87%
    07:00 +5°C° 0 mm 3 m/s 758 mmHg 84%
    08:00 +5°C° 0 mm 3 m/s 758 mmHg 82%
    09:00 +8°C° 0 mm 3 m/s 758 mmHg 75%
    10:00 +10°C° 0 mm 3 m/s 757 mmHg 67%
    11:00 +12°C° 0 mm 4 m/s 757 mmHg 60%
    12:00 +12°C° 0 mm 3 m/s 757 mmHg 60%
    13:00 +13°C° 0 mm 3 m/s 756 mmHg 60%
    14:00 +13°C° 0 mm 3 m/s 756 mmHg 60%
    15:00 +12°C° 0 mm 3 m/s 755 mmHg 63%
    16:00 +11°C° 0 mm 3 m/s 755 mmHg 67%
    17:00 +10°C° 0 mm 3 m/s 755 mmHg 70%
    18:00 +9°C° 0 mm 3 m/s 754 mmHg 72%
    19:00 +9°C° 0 mm 3 m/s 754 mmHg 73%
    20:00 +9°C° 0 mm 3 m/s 754 mmHg 74%
    21:00 +9°C° 0 mm 3 m/s 754 mmHg 75%
    22:00 +9°C° 0 mm 3 m/s 753 mmHg 76%
    23:00 +9°C° 0 mm 3 m/s 753 mmHg 76%

    21 Juillet, Samedi

    Heure Température Précipitation Vent Pression Humidité
    00:00 +9°C° 0 mm 3 m/s 753 mmHg 77%
    01:00 +8°C° 0 mm 3 m/s 752 mmHg 78%
    02:00 +8°C° 0 mm 3 m/s 752 mmHg 79%
    03:00 +8°C° 0 mm 3 m/s 752 mmHg 80%
    04:00 +8°C° 0 mm 3 m/s 752 mmHg 81%
    05:00 +8°C° 0 mm 2 m/s 752 mmHg 82%
    06:00 +8°C° 0,5 mm 2 m/s 751 mmHg 85%
    07:00 +8°C° 0,5 mm 2 m/s 751 mmHg 89%
    08:00 +8°C° 0,5 mm 2 m/s 751 mmHg 93%
    09:00 +8°C° 1,5 mm 2 m/s 751 mmHg 93%
    10:00 +9°C° 1,5 mm 2 m/s 751 mmHg 93%
    11:00 +9°C° 1,5 mm 2 m/s 750 mmHg 93%
    12:00 +8°C° 2,3 mm 2 m/s 750 mmHg 94%
    13:00 +7°C° 2,3 mm 2 m/s 749 mmHg 95%
    14:00 +7°C° 2,3 mm 2 m/s 748 mmHg 97%
    15:00 +5°C° 1,2 mm 3 m/s 749 mmHg 96%
    16:00 +5°C° 1,2 mm 3 m/s 750 mmHg 96%
    17:00 +5°C° 1,2 mm 3 m/s 751 mmHg 96%
    18:00 +5°C° 0,1 mm 3 m/s 751 mmHg 95%
    19:00 +5°C° 0,1 mm 4 m/s 752 mmHg 94%
    20:00 +5°C° 0,1 mm 4 m/s 753 mmHg 93%
    21:00 +5°C° 0,1 mm 4 m/s 753 mmHg 92%
    22:00 +4°C° 0,1 mm 4 m/s 754 mmHg 91%
    23:00 +3°C° 0,1 mm 5 m/s 754 mmHg 90%
    Voir plus